17apart.com alexa rank chart, 17apart.com alexa rank daily changes

17apart.com alexa rank chart, 17apart.com alexa rank daily changes

17apart.com
Actual rank:
537 355

RANK HISTORY

Date Rank Diff
2017/02/28 537 355 -19 536
2017/02/27 556 891 +724
2017/02/26 556 167 -1 968
2017/02/25 558 135 +2 798
2017/02/24 555 337 +26 250
2017/02/23 529 087 -5 006
2017/02/22 534 093 +2 466
2017/02/21 531 627 +13 329
2017/02/20 518 298 +11 289
2017/02/19 507 009 +24 871
2017/02/18 482 138 +34 415
2017/02/17 447 723 +227
2017/02/16 447 496 +7 272
2017/02/15 440 224 -2 009
2017/02/14 442 233 +3 421
2017/02/13 438 812 +5 401
2017/02/12 433 411 -3 632
2017/02/11 437 043 -3 546
2017/02/10 440 589 +4 206
2017/02/09 436 383 +25 623
2017/02/08 410 760 -3 264
2017/02/07 414 024 -19 719
2017/02/06 433 743 +4 962
2017/02/05 428 781 +440
2017/02/04 428 341 +5 952
2017/02/03 422 389 +27 014
2017/02/02 395 375 -469
2017/02/01 395 844 +8 123
2017/01/31 387 721 -8 458
2017/01/30 396 179 -1 784
2017/01/29 397 963 -5 475
2017/01/28 403 438 -638
2017/01/27 404 076 -1 458
2017/01/26 405 534 +4 137
2017/01/25 401 397 -3 145
2017/01/24 404 542 -18 739
2017/01/23 423 281 -6 744
2017/01/22 430 025 +7 996
2017/01/21 422 029 -5 388
2017/01/20 427 417 +35 402
2017/01/19 392 015 +126 052
2017/01/18 265 963 +103 954
2017/01/17 162 009 -259
2017/01/16 162 268 -952
2017/01/15 163 220 -315
2017/01/14 163 535 -1 487
2017/01/13 165 022 +1 030
2017/01/12 163 992 +1 630
2017/01/11 162 362 -337
2017/01/10 162 699 -1 763
2017/01/09 164 462 -3 058
2017/01/08 167 520 -23
2017/01/07 167 543 -209
2017/01/06 167 752 -1 368
2017/01/05 169 120 +598
2017/01/04 168 522 +639
2017/01/03 167 883 -4 725
2017/01/02 172 608 -1 970
2017/01/01 174 578 +2 407
2016/12/31 172 171 -1 128
2016/12/30 173 299

WIDGET FOR YOUR SITE

DOMAINS WITH THE NEAREST RANK

Domain Rank
clio.co.kr 537 350
neffco.com 537 351
solardecathlon.gov 537 352
win58888.com 537 353
loreal.fr 537 354
17apart.com 537 355
taoofherbs.com 537 356
medjimurje.hr 537 357
rainkmc.ml 537 358
grepolistoolkit.com 537 359
speedrent.com 537 360

DOMAINS WITH THE NEAREST RANK BY TLD .com

Domain Rank
yishuzi.com 537 339
miraie-net.com 537 341
seerex-aipo.com 537 347
neffco.com 537 351
win58888.com 537 353
17apart.com 537 355
taoofherbs.com 537 356
grepolistoolkit.com 537 359
speedrent.com 537 360
zeq2.com 537 363
sehatcenter.com 537 366